,,,PA_Meas_PMT16A,,PR_Meas_QMR101_102,,RH_Meas_QMH101,,SR_Meas_QMS101,,TA_Meas_QMH101,,GenWind,,GenWind,
date,time,status,PA,status,PR,status,RH,status,SR,status,TA,status,DirAvg,status,SpdAvg,
2012-05-25, 00:00:04,VALID,1001,VALID,0,VALID,95.706,VALID,0,VALID,22.903,VALID,47,VALID,0.432813,
2012-05-25, 00:01:04,VALID,1001,VALID,0,VALID,95.706,VALID,0,VALID,22.9225,VALID,47,VALID,0.608203,
2012-05-25, 00:02:04,VALID,1000.96,VALID,0,VALID,95.706,VALID,0,VALID,22.942,VALID,47,VALID,0.780469,
2012-05-25, 00:03:04,VALID,1000.94,VALID,0,VALID,95.7212,VALID,0,VALID,22.9598,VALID,35,VALID,0.783594,
2012-05-25, 00:04:04,VALID,1000.95,VALID,0,VALID,95.7212,VALID,0,VALID,22.919,VALID,17,VALID,0.939844,
2012-05-25, 00:05:04,VALID,1000.95,VALID,0,VALID,95.706,VALID,0,VALID,22.9598,VALID,359,VALID,0.882422,
2012-05-25, 00:06:04,VALID,1000.94,VALID,0,VALID,95.6907,VALID,0,VALID,22.9598,VALID,334,VALID,0.782031,
2012-05-25, 00:07:04,VALID,1000.96,VALID,0,VALID,95.6983,VALID,0,VALID,22.9598,VALID,317,VALID,0.696484,
2012-05-25, 00:08:04,VALID,1000.99,VALID,0,VALID,95.7288,VALID,0,VALID,22.9403,VALID,317,VALID,0.626562,
2012-05-25, 00:09:04,VALID,1000.99,VALID,0.5,VALID,95.7288,VALID,0,VALID,22.9403,VALID,317,VALID,0.730859,
2012-05-25, 00:10:04,VALID,1001,VALID,0,VALID,95.7136,VALID,0,VALID,22.9598,VALID,317,VALID,0.584766,
2012-05-25, 00:11:04,VALID,1000.99,VALID,0,VALID,95.7212,VALID,0,VALID,22.9403,VALID,317,VALID,0.327734,
2012-05-25, 00:12:04,VALID,1001.03,VALID,0,VALID,95.706,VALID,0,VALID,22.9385,VALID,317,VALID,0.233203,
2012-05-25, 00:13:04,VALID,1001.01,VALID,0,VALID,95.6983,VALID,0,VALID,22.9385,VALID,317,VALID,0.497656,
2012-05-25, 00:14:04,VALID,1001.05,VALID,0,VALID,95.6831,VALID,0,VALID,22.9793,VALID,317,VALID,0.657422,
2012-05-25, 00:15:04,VALID,1001.06,VALID,0,VALID,95.706,VALID,0,VALID,22.9385,VALID,317,VALID,0.623438,
2012-05-25, 00:16:04,VALID,1001.07,VALID,0,VALID,95.6907,VALID,0,VALID,22.9403,VALID,317,VALID,0.643359,
2012-05-25, 00:17:04,VALID,1001.07,VALID,0,VALID,95.7136,VALID,0.104696,VALID,22.9385,VALID,358,VALID,0.910937,
2012-05-25, 00:18:04,VALID,1001.1,VALID,0,VALID,95.6831,VALID,0,VALID,22.9385,VALID,358,VALID,0.795313,
2012-05-25, 00:19:04,VALID,1001.11,VALID,0,VALID,95.6754,VALID,0,VALID,22.9988,VALID,358,VALID,0.679688,
2012-05-25, 00:20:04,VALID,1001.11,VALID,0,VALID,95.6373,VALID,0,VALID,23.0183,VALID,358,VALID,0.558203,
2012-05-25, 00:21:04,VALID,1001.1,VALID,0,VALID,95.6602,VALID,0,VALID,23.0378,VALID,34,VALID,1.01836,
2012-05-25, 00:22:04,VALID,1001.1,VALID,0,VALID,95.6525,VALID,0.104696,VALID,23.0769,VALID,47,VALID,1.07148,
2012-05-25, 00:23:04,VALID,1001.1,VALID,0,VALID,95.622,VALID,0,VALID,23.1159,VALID,58,VALID,0.916406,
2012-05-25, 00:24:04,VALID,1001.15,VALID,0,VALID,95.5915,VALID,0,VALID,23.1336,VALID,58,VALID,1.08125,
2012-05-25, 00:25:04,VALID,1001.13,VALID,0,VALID,95.622,VALID,0,VALID,23.1531,VALID,58,VALID,1.02656,
2012-05-25, 00:26:04,VALID,1001.17,VALID,0,VALID,95.6068,VALID,0,VALID,23.1939,VALID,57,VALID,1.29492,
2012-05-25, 00:27:04,VALID,1001.19,VALID,0.5,VALID,95.5839,VALID,0,VALID,23.1726,VALID,58,VALID,1.30664,
2012-05-25, 00:28:04,VALID,1001.16,VALID,0,VALID,95.622,VALID,0.104696,VALID,23.2134,VALID,58,VALID,1.15625,
2012-05-25, 00:29:04,VALID,1001.18,VALID,0,VALID,95.5991,VALID,0,VALID,23.2134,VALID,58,VALID,1.0207,
2012-05-25, 00:30:04,VALID,1001.16,VALID,0,VALID,95.5991,VALID,0,VALID,23.2134,VALID,58,VALID,0.923047,
2012-05-25, 00:31:04,VALID,1001.13,VALID,0,VALID,95.6144,VALID,0.104696,VALID,23.2117,VALID,58,VALID,0.882422,
2012-05-25, 00:32:04,VALID,1001.12,VALID,0,VALID,95.6297,VALID,0,VALID,23.1921,VALID,54,VALID,0.966797,
2012-05-25, 00:33:04,VALID,1001.09,VALID,0,VALID,95.6068,VALID,0,VALID,23.1921,VALID,54,VALID,0.760938,
2012-05-25, 00:34:04,VALID,1001.06,VALID,0,VALID,95.6449,VALID,0,VALID,23.2134,VALID,47,VALID,0.806641,
2012-05-25, 00:35:04,VALID,1001.06,VALID,0,VALID,95.6449,VALID,0.104696,VALID,23.1939,VALID,47,VALID,0.762109,
2012-05-25, 00:36:04,VALID,1001.04,VALID,0,VALID,95.6678,VALID,0,VALID,23.1726,VALID,61,VALID,0.71875,
2012-05-25, 00:37:04,VALID,1001.02,VALID,0,VALID,95.6525,VALID,0,VALID,23.1939,VALID,70,VALID,0.569141,
2012-05-25, 00:38:04,VALID,1001.03,VALID,0,VALID,95.6983,VALID,0,VALID,23.1354,VALID,74,VALID,0.660547,
2012-05-25, 00:39:04,VALID,1001.02,VALID,0,VALID,95.7212,VALID,0,VALID,23.0964,VALID,91,VALID,0.750391,
2012-05-25, 00:40:04,VALID,1001.02,VALID,0,VALID,95.7288,VALID,0,VALID,23.0378,VALID,105,VALID,0.653516,
2012-05-25, 00:41:04,VALID,1001.02,VALID,0,VALID,95.7288,VALID,0,VALID,23.0378,VALID,105,VALID,0.411719,
2012-05-25, 00:42:04,VALID,1001.03,VALID,0,VALID,95.7288,VALID,0,VALID,22.9971,VALID,105,VALID,0.597656,
2012-05-25, 00:43:04,VALID,1001,VALID,0,VALID,95.7136,VALID,0,VALID,23.0166,VALID,105,VALID,0.713281,
2012-05-25, 00:44:04,VALID,1000.97,VALID,0,VALID,95.7136,VALID,0,VALID,23.0378,VALID,105,VALID,0.396875,
2012-05-25, 00:45:04,VALID,1000.98,VALID,0,VALID,95.6907,VALID,0,VALID,23.0183,VALID,105,VALID,0.544531,
2012-05-25, 00:46:04,VALID,1000.97,VALID,0,VALID,95.7136,VALID,0,VALID,23.0166,VALID,105,VALID,0.178125,
2012-05-25, 00:47:04,VALID,1000.97,VALID,0,VALID,95.6983,VALID,0.104696,VALID,23.0166,VALID,105,VALID,0.591797,
2012-05-25, 00:48:04,VALID,1000.96,VALID,0,VALID,95.6983,VALID,0,VALID,23.0378,VALID,105,VALID,0.490625,
2012-05-25, 00:49:04,VALID,1000.93,VALID,0,VALID,95.7212,VALID,0,VALID,23.0166,VALID,105,VALID,0.542578,
2012-05-25, 00:50:04,VALID,1000.92,VALID,0,VALID,95.6983,VALID,0,VALID,23.0378,VALID,105,VALID,0.682422,
2012-05-25, 00:51:04,VALID,1000.95,VALID,0,VALID,95.7136,VALID,0,VALID,23.0378,VALID,93,VALID,0.763281,
2012-05-25, 00:52:04,VALID,1000.93,VALID,0,VALID,95.706,VALID,0.104696,VALID,23.0361,VALID,93,VALID,0.5625,
2012-05-25, 00:53:04,VALID,1000.94,VALID,0,VALID,95.706,VALID,0,VALID,23.0573,VALID,93,VALID,0.588672,
2012-05-25, 00:54:04,VALID,1000.92,VALID,0,VALID,95.6907,VALID,0.104696,VALID,23.0556,VALID,93,VALID,0.501172,
2012-05-25, 00:55:04,VALID,1000.88,VALID,0,VALID,95.6983,VALID,0,VALID,23.0751,VALID,93,VALID,0.678125,
2012-05-25, 00:56:04,VALID,1000.88,VALID,0,VALID,95.6907,VALID,0,VALID,23.0964,VALID,93,VALID,0.5125,
2012-05-25, 00:57:04,VALID,1000.85,VALID,0,VALID,95.6754,VALID,0,VALID,23.1159,VALID,93,VALID,0.551172,
2012-05-25, 00:58:04,VALID,1000.85,VALID,0,VALID,95.6907,VALID,0,VALID,23.1159,VALID,93,VALID,0.734375,
2012-05-25, 00:59:04,VALID,1000.77,VALID,0,VALID,95.6831,VALID,0.104696,VALID,23.1141,VALID,93,VALID,0.817969,
2012-05-25, 01:00:04,VALID,1000.8,VALID,0,VALID,95.6907,VALID,0,VALID,23.1141,VALID,93,VALID,0.873828,
2012-05-25, 01:01:04,VALID,1000.78,VALID,0,VALID,95.706,VALID,0,VALID,23.1141,VALID,93,VALID,0.894141,
2012-05-25, 01:02:04,VALID,1000.75,VALID,0,VALID,95.6678,VALID,0.104696,VALID,23.1336,VALID,96,VALID,0.769531,
2012-05-25, 01:03:04,VALID,1000.79,VALID,0,VALID,95.706,VALID,0,VALID,23.1141,VALID,110,VALID,0.889844,
2012-05-25, 01:04:04,VALID,1000.73,VALID,0,VALID,95.7212,VALID,0,VALID,23.1336,VALID,111,VALID,0.909375,
2012-05-25, 01:05:04,VALID,1000.75,VALID,0,VALID,95.7136,VALID,0,VALID,23.1336,VALID,116,VALID,0.851563,
2012-05-25, 01:06:04,VALID,1000.72,VALID,0,VALID,95.7136,VALID,0,VALID,23.1336,VALID,116,VALID,0.914063,
2012-05-25, 01:07:04,VALID,1000.67,VALID,0,VALID,95.706,VALID,0,VALID,23.1549,VALID,123,VALID,0.967578,
2012-05-25, 01:08:04,VALID,1000.64,VALID,0,VALID,95.6907,VALID,0,VALID,23.1726,VALID,125,VALID,1.07969,
2012-05-25, 01:09:04,VALID,1000.61,VALID,0,VALID,95.7136,VALID,0,VALID,23.1531,VALID,125,VALID,0.908203,
2012-05-25, 01:10:04,VALID,1000.62,VALID,0,VALID,95.706,VALID,0,VALID,23.1726,VALID,125,VALID,0.873438,
2012-05-25, 01:11:04,VALID,1000.56,VALID,0,VALID,95.7212,VALID,0,VALID,23.2134,VALID,133,VALID,0.909375,
2012-05-25, 01:12:04,VALID,1000.52,VALID,0,VALID,95.6831,VALID,0,VALID,23.2719,VALID,133,VALID,0.809766,
2012-05-25, 01:13:04,VALID,1000.49,VALID,0,VALID,95.6907,VALID,0,VALID,23.2702,VALID,133,VALID,0.947656,
2012-05-25, 01:14:04,VALID,1000.43,VALID,0,VALID,95.6678,VALID,0,VALID,23.3092,VALID,133,VALID,0.983984,
2012-05-25, 01:15:04,VALID,1000.42,VALID,0,VALID,95.6754,VALID,0,VALID,23.3482,VALID,133,VALID,0.794141,
2012-05-25, 01:16:04,VALID,1000.39,VALID,0,VALID,95.6297,VALID,0,VALID,23.389,VALID,133,VALID,0.892969,
2012-05-25, 01:17:04,VALID,1000.34,VALID,0,VALID,95.6525,VALID,0,VALID,23.3872,VALID,133,VALID,0.721094,
2012-05-25, 01:18:04,VALID,1000.33,VALID,0,VALID,95.6449,VALID,0,VALID,23.4085,VALID,133,VALID,0.782422,
2012-05-25, 01:19:04,VALID,1000.31,VALID,0,VALID,95.6754,VALID,0,VALID,23.3872,VALID,133,VALID,0.858203,
2012-05-25, 01:20:04,VALID,1000.29,VALID,0,VALID,95.6678,VALID,0,VALID,23.4067,VALID,133,VALID,0.972656,
2012-05-25, 01:21:04,VALID,1000.27,VALID,0,VALID,95.6907,VALID,0,VALID,23.428,VALID,133,VALID,0.788281,
2012-05-25, 01:22:04,VALID,1000.24,VALID,0,VALID,95.6602,VALID,0,VALID,23.428,VALID,133,VALID,0.839453,
2012-05-25, 01:23:04,VALID,1000.2,VALID,0,VALID,95.6602,VALID,0,VALID,23.428,VALID,132,VALID,0.939062,
2012-05-25, 01:24:04,VALID,1000.17,VALID,0,VALID,95.6525,VALID,0,VALID,23.4475,VALID,128,VALID,0.710156,
2012-05-25, 01:25:04,VALID,1000.19,VALID,0,VALID,95.6449,VALID,0,VALID,23.4475,VALID,115,VALID,0.89375,
2012-05-25, 01:26:04,VALID,1000.16,VALID,0,VALID,95.6525,VALID,0,VALID,23.4458,VALID,114,VALID,0.894531,
2012-05-25, 01:27:04,VALID,1000.15,VALID,0,VALID,95.6449,VALID,0,VALID,23.4671,VALID,112,VALID,0.569531,
2012-05-25, 01:28:04,VALID,1000.17,VALID,0,VALID,95.6297,VALID,0,VALID,23.4671,VALID,112,VALID,0.447266,
2012-05-25, 01:29:04,VALID,1000.16,VALID,0,VALID,95.6525,VALID,0,VALID,23.4458,VALID,112,VALID,0.0902344,
2012-05-25, 01:30:04,VALID,1000.2,VALID,0,VALID,95.6602,VALID,0,VALID,23.4653,VALID,112,VALID,0,
2012-05-25, 01:31:04,VALID,1000.2,VALID,0,VALID,95.6373,VALID,0,VALID,23.4458,VALID,112,VALID,0.123438,
2012-05-25, 01:32:04,VALID,1000.18,VALID,0,VALID,95.6525,VALID,0,VALID,23.4458,VALID,112,VALID,0.342969,
2012-05-25, 01:33:04,VALID,1000.18,VALID,0,VALID,95.6754,VALID,0,VALID,23.428,VALID,112,VALID,0.216797,
2012-05-25, 01:34:04,VALID,1000.18,VALID,0,VALID,95.6525,VALID,0,VALID,23.4263,VALID,112,VALID,0.257422,
2012-05-25, 01:35:04,VALID,1000.16,VALID,0,VALID,95.6373,VALID,0,VALID,23.4475,VALID,112,VALID,0.435937,
2012-05-25, 01:36:04,VALID,1000.13,VALID,0,VALID,95.6602,VALID,0,VALID,23.4067,VALID,112,VALID,0.367969,
2012-05-25, 01:37:04,VALID,1000.13,VALID,0,VALID,95.6678,VALID,0,VALID,23.4085,VALID,112,VALID,0.46875,
2012-05-25, 01:38:04,VALID,1000.09,VALID,0,VALID,95.6754,VALID,0,VALID,23.3695,VALID,112,VALID,0.317969,
2012-05-25, 01:39:04,VALID,1000.07,VALID,0,VALID,95.6525,VALID,0,VALID,23.3695,VALID,112,VALID,0.303516,
2012-05-25, 01:40:04,VALID,1000.05,VALID,0,VALID,95.6678,VALID,0,VALID,23.35,VALID,112,VALID,0.330859,
2012-05-25, 01:41:04,VALID,1000.03,VALID,0,VALID,95.6831,VALID,0,VALID,23.3287,VALID,112,VALID,0.0878906,
2012-05-25, 01:42:04,VALID,1000,VALID,0,VALID,95.6831,VALID,0,VALID,23.3092,VALID,112,VALID,0,
2012-05-25, 01:43:04,VALID,999.989,VALID,0,VALID,95.6754,VALID,0,VALID,23.3305,VALID,112,VALID,0,
2012-05-25, 01:44:04,VALID,999.95,VALID,0,VALID,95.6754,VALID,0,VALID,23.2897,VALID,112,VALID,0.341797,
2012-05-25, 01:45:04,VALID,999.959,VALID,0,VALID,95.6525,VALID,0,VALID,23.3305,VALID,112,VALID,0.404297,
2012-05-25, 01:46:04,VALID,999.932,VALID,0,VALID,95.6297,VALID,0,VALID,23.3695,VALID,112,VALID,0.533203,
2012-05-25, 01:47:04,VALID,999.906,VALID,0,VALID,95.6297,VALID,0,VALID,23.389,VALID,130,VALID,0.888281,
2012-05-25, 01:48:04,VALID,999.9,VALID,0,VALID,95.6068,VALID,0,VALID,23.4085,VALID,133,VALID,0.978516,
2012-05-25, 01:49:04,VALID,999.872,VALID,0,VALID,95.6297,VALID,0,VALID,23.4067,VALID,133,VALID,0.654297,
2012-05-25, 01:50:04,VALID,999.887,VALID,0,VALID,95.5991,VALID,0,VALID,23.428,VALID,116,VALID,0.814453,
2012-05-25, 01:51:04,VALID,999.875,VALID,0,VALID,95.5915,VALID,0,VALID,23.4475,VALID,116,VALID,0.745313,
2012-05-25, 01:52:04,VALID,999.87,VALID,0,VALID,95.6144,VALID,0,VALID,23.4263,VALID,116,VALID,0.704297,
2012-05-25, 01:53:04,VALID,999.869,VALID,0,VALID,95.6068,VALID,0,VALID,23.4458,VALID,114,VALID,0.712109,
2012-05-25, 01:54:05,VALID,999.848,VALID,0,VALID,95.5991,VALID,0,VALID,23.4671,VALID,114,VALID,0.639063,
2012-05-25, 01:55:05,VALID,999.816,VALID,0,VALID,95.6297,VALID,0,VALID,23.4263,VALID,96,VALID,0.653125,
2012-05-25, 01:56:05,VALID,999.829,VALID,0,VALID,95.6297,VALID,0,VALID,23.4458,VALID,96,VALID,0.687109,
2012-05-25, 01:57:05,VALID,999.832,VALID,0,VALID,95.6297,VALID,0,VALID,23.4671,VALID,96,VALID,0.672656,
2012-05-25, 01:58:05,VALID,999.858,VALID,0,VALID,95.6297,VALID,0,VALID,23.4653,VALID,96,VALID,0.382031,
2012-05-25, 01:59:05,VALID,999.844,VALID,0,VALID,95.6297,VALID,0,VALID,23.4671,VALID,98,VALID,1.05586,
2012-05-25, 02:00:05,VALID,999.852,VALID,0,VALID,95.6373,VALID,0,VALID,23.4458,VALID,104,VALID,0.141797,
2012-05-25, 02:01:05,VALID,999.846,VALID,0,VALID,95.6373,VALID,0.104696,VALID,23.4475,VALID,104,VALID,0,
2012-05-25, 02:02:05,VALID,999.851,VALID,0,VALID,95.6678,VALID,0,VALID,23.4263,VALID,104,VALID,0,
2012-05-25, 02:03:05,VALID,999.835,VALID,0,VALID,95.6831,VALID,0,VALID,23.4085,VALID,104,VALID,0.15,
2012-05-25, 02:04:05,VALID,999.877,VALID,0,VALID,95.6831,VALID,0,VALID,23.3482,VALID,104,VALID,0.137891,
2012-05-25, 02:05:05,VALID,999.816,VALID,0,VALID,95.706,VALID,0,VALID,23.3482,VALID,44,VALID,0.66875,
2012-05-25, 02:06:05,VALID,999.861,VALID,0,VALID,95.6831,VALID,0,VALID,23.3482,VALID,44,VALID,0.528516,
2012-05-25, 02:07:05,VALID,999.877,VALID,0,VALID,95.6602,VALID,0,VALID,23.3482,VALID,38,VALID,0.55,
2012-05-25, 02:08:05,VALID,999.884,VALID,0,VALID,95.6754,VALID,0,VALID,23.3677,VALID,335,VALID,0.736719,
2012-05-25, 02:09:05,VALID,999.869,VALID,0,VALID,95.6525,VALID,0.104696,VALID,23.3677,VALID,313,VALID,0.834766,
2012-05-25, 02:10:05,VALID,999.844,VALID,0,VALID,95.6602,VALID,0,VALID,23.428,VALID,312,VALID,0.884766,
2012-05-25, 02:11:05,VALID,999.83,VALID,0,VALID,95.6831,VALID,0,VALID,23.3872,VALID,312,VALID,0.687891,
2012-05-25, 02:12:05,VALID,999.849,VALID,0,VALID,95.6754,VALID,0,VALID,23.389,VALID,313,VALID,0.641797,
2012-05-25, 02:13:05,VALID,999.821,VALID,0,VALID,95.7212,VALID,0,VALID,23.3287,VALID,42,VALID,0.739062,
2012-05-25, 02:14:05,VALID,999.82,VALID,0,VALID,95.7365,VALID,0,VALID,23.2897,VALID,53,VALID,0.85,
2012-05-25, 02:15:05,VALID,999.828,VALID,0,VALID,95.7441,VALID,0,VALID,23.2897,VALID,47,VALID,1.02422,
2012-05-25, 02:16:05,VALID,999.871,VALID,0,VALID,95.7288,VALID,0,VALID,23.3305,VALID,40,VALID,1.01523,
2012-05-25, 02:17:05,VALID,999.899,VALID,0,VALID,95.7365,VALID,0,VALID,23.311,VALID,40,VALID,0.980078,
2012-05-25, 02:18:05,VALID,999.903,VALID,0,VALID,95.7365,VALID,0,VALID,23.2897,VALID,39,VALID,1.13477,
2012-05-25, 02:19:05,VALID,999.896,VALID,0,VALID,95.7746,VALID,0,VALID,23.2702,VALID,38,VALID,1.43633,
2012-05-25, 02:20:05,VALID,999.904,VALID,0,VALID,95.7975,VALID,0,VALID,23.2117,VALID,51,VALID,1.7457,
2012-05-25, 02:21:05,VALID,999.905,VALID,0,VALID,95.8357,VALID,0,VALID,23.1726,VALID,53,VALID,1.56523,
2012-05-25, 02:22:05,VALID,999.918,VALID,0,VALID,95.8509,VALID,0,VALID,23.1939,VALID,49,VALID,1.62969,
2012-05-25, 02:23:05,VALID,999.9,VALID,0,VALID,95.8585,VALID,0,VALID,23.1939,VALID,61,VALID,1.38125,
2012-05-25, 02:24:05,VALID,999.914,VALID,0,VALID,95.8662,VALID,0,VALID,23.1531,VALID,65,VALID,1.32031,
2012-05-25, 02:25:05,VALID,999.908,VALID,0,VALID,95.8738,VALID,0,VALID,23.1939,VALID,54,VALID,1.14414,
2012-05-25, 02:26:05,VALID,999.911,VALID,0,VALID,95.8662,VALID,0,VALID,23.1921,VALID,52,VALID,1.03359,
2012-05-25, 02:27:05,VALID,999.893,VALID,0,VALID,95.8662,VALID,0,VALID,23.2134,VALID,52,VALID,1.05742,
2012-05-25, 02:28:05,VALID,999.87,VALID,0,VALID,95.8738,VALID,0,VALID,23.1921,VALID,52,VALID,0.876562,
2012-05-25, 02:29:05,VALID,999.83,VALID,0,VALID,95.8967,VALID,0,VALID,23.1726,VALID,43,VALID,0.568359,
2012-05-25, 02:30:05,VALID,999.878,VALID,0,VALID,95.8967,VALID,0,VALID,23.1726,VALID,43,VALID,0.394141,
2012-05-25, 02:31:05,VALID,999.89,VALID,0,VALID,95.8967,VALID,0,VALID,23.1726,VALID,43,VALID,0.296484,
2012-05-25, 02:32:05,VALID,999.875,VALID,0,VALID,95.9043,VALID,0,VALID,23.1744,VALID,43,VALID,0.497266,
2012-05-25, 02:33:05,VALID,999.869,VALID,0,VALID,95.8967,VALID,0,VALID,23.1744,VALID,42,VALID,0.6375,
2012-05-25, 02:34:05,VALID,999.884,VALID,0,VALID,95.8967,VALID,0,VALID,23.1354,VALID,42,VALID,0.641016,
2012-05-25, 02:35:05,VALID,999.896,VALID,0,VALID,95.912,VALID,0,VALID,23.1354,VALID,29,VALID,0.967188,
2012-05-25, 02:36:05,VALID,999.883,VALID,0,VALID,95.8967,VALID,0,VALID,23.0946,VALID,28,VALID,1.12422,
2012-05-25, 02:37:05,VALID,999.904,VALID,0,VALID,95.8967,VALID,0,VALID,23.0769,VALID,28,VALID,1.03906,
2012-05-25, 02:38:05,VALID,999.885,VALID,0,VALID,95.912,VALID,0,VALID,23.0751,VALID,39,VALID,0.951172,
2012-05-25, 02:39:05,VALID,999.893,VALID,0,VALID,95.9348,VALID,0,VALID,23.0769,VALID,40,VALID,1.15078,
2012-05-25, 02:40:05,VALID,999.905,VALID,0,VALID,95.912,VALID,0,VALID,23.0556,VALID,49,VALID,1.0832,
2012-05-25, 02:41:05,VALID,999.891,VALID,0,VALID,95.9196,VALID,0,VALID,23.0556,VALID,57,VALID,0.817187,
2012-05-25, 02:42:05,VALID,999.877,VALID,0,VALID,95.9043,VALID,0,VALID,23.0751,VALID,59,VALID,1.1582,
2012-05-25, 02:43:05,VALID,999.872,VALID,0,VALID,95.912,VALID,0,VALID,23.0964,VALID,59,VALID,1.16562,
2012-05-25, 02:44:05,VALID,999.841,VALID,0,VALID,95.9272,VALID,0,VALID,23.0964,VALID,59,VALID,1.16133,
2012-05-25, 02:45:05,VALID,999.856,VALID,0,VALID,95.9196,VALID,0,VALID,23.0964,VALID,52,VALID,1.16484,
2012-05-25, 02:46:05,VALID,999.852,VALID,0,VALID,95.9043,VALID,0,VALID,23.0751,VALID,52,VALID,1.08281,
2012-05-25, 02:47:05,VALID,999.847,VALID,0,VALID,95.912,VALID,0,VALID,23.0769,VALID,52,VALID,1.23281,
2012-05-25, 02:48:05,VALID,999.876,VALID,0,VALID,95.8967,VALID,0,VALID,23.0556,VALID,52,VALID,0.798047,
2012-05-25, 02:49:05,VALID,999.864,VALID,0,VALID,95.9043,VALID,0,VALID,23.0769,VALID,52,VALID,0.682031,
2012-05-25, 02:50:05,VALID,999.883,VALID,0,VALID,95.8814,VALID,0,VALID,23.0769,VALID,52,VALID,0.581641,
2012-05-25, 02:51:05,VALID,999.878,VALID,0,VALID,95.8891,VALID,0,VALID,23.0573,VALID,52,VALID,0.792969,
2012-05-25, 02:52:05,VALID,999.905,VALID,0,VALID,95.8814,VALID,0,VALID,23.0769,VALID,52,VALID,0.7,
2012-05-25, 02:53:05,VALID,999.871,VALID,0,VALID,95.8509,VALID,0,VALID,23.0361,VALID,52,VALID,0.841406,
2012-05-25, 02:54:05,VALID,999.887,VALID,0,VALID,95.8891,VALID,0,VALID,23.0378,VALID,52,VALID,0.859766,
2012-05-25, 02:55:05,VALID,999.905,VALID,0,VALID,95.8738,VALID,0,VALID,23.0361,VALID,59,VALID,0.872266,
2012-05-25, 02:56:05,VALID,999.892,VALID,0,VALID,95.8662,VALID,0,VALID,23.0573,VALID,60,VALID,0.632422,
2012-05-25, 02:57:05,VALID,999.915,VALID,0,VALID,95.8509,VALID,0.104696,VALID,23.0361,VALID,60,VALID,0.367188,
2012-05-25, 02:58:05,VALID,999.924,VALID,0,VALID,95.8509,VALID,0,VALID,23.0556,VALID,60,VALID,0.583594,
2012-05-25, 02:59:05,VALID,999.955,VALID,0,VALID,95.8509,VALID,0,VALID,23.0361,VALID,79,VALID,0.774609,
2012-05-25, 03:00:05,VALID,999.951,VALID,0,VALID,95.8509,VALID,0,VALID,23.0361,VALID,101,VALID,0.848828,
2012-05-25, 03:01:05,VALID,999.956,VALID,0,VALID,95.8585,VALID,0,VALID,23.0378,VALID,126,VALID,0.825,
2012-05-25, 03:02:05,VALID,999.944,VALID,0,VALID,95.8738,VALID,0,VALID,23.0361,VALID,126,VALID,0.950781,
2012-05-25, 03:03:05,VALID,999.951,VALID,0,VALID,95.8585,VALID,0,VALID,23.0378,VALID,126,VALID,0.869531,
2012-05-25, 03:04:05,VALID,999.959,VALID,0,VALID,95.8814,VALID,0,VALID,23.0378,VALID,126,VALID,0.569531,
2012-05-25, 03:05:05,VALID,999.972,VALID,0,VALID,95.8738,VALID,0,VALID,23.0573,VALID,126,VALID,0.603906,
2012-05-25, 03:06:05,VALID,999.93,VALID,0,VALID,95.8585,VALID,0,VALID,23.0769,VALID,126,VALID,0.536719,
2012-05-25, 03:07:05,VALID,999.925,VALID,0,VALID,95.8585,VALID,0,VALID,23.0964,VALID,126,VALID,0.65625,
2012-05-25, 03:08:05,VALID,999.944,VALID,0,VALID,95.8433,VALID,0,VALID,23.1159,VALID,132,VALID,0.794141,
2012-05-25, 03:09:05,VALID,999.929,VALID,0,VALID,95.8433,VALID,0,VALID,23.1549,VALID,158,VALID,1.05742,
2012-05-25, 03:10:05,VALID,999.943,VALID,0,VALID,95.8509,VALID,0,VALID,23.1549,VALID,160,VALID,1.40664,
2012-05-25, 03:11:05,VALID,999.943,VALID,0,VALID,95.8738,VALID,0,VALID,23.1549,VALID,159,VALID,1.49766,
2012-05-25, 03:12:05,VALID,999.936,VALID,0,VALID,95.8662,VALID,0,VALID,23.2152,VALID,169,VALID,1.2457,
2012-05-25, 03:13:05,VALID,999.93,VALID,0,VALID,95.8738,VALID,0,VALID,23.2347,VALID,169,VALID,1.0043,
2012-05-25, 03:14:05,VALID,999.921,VALID,0,VALID,95.8585,VALID,0,VALID,23.2719,VALID,194,VALID,1.10195,
2012-05-25, 03:15:05,VALID,999.926,VALID,0,VALID,95.8509,VALID,0,VALID,23.3305,VALID,170,VALID,0.732031,
2012-05-25, 03:16:05,VALID,999.928,VALID,0,VALID,95.8509,VALID,0,VALID,23.3713,VALID,166,VALID,1.11016,
2012-05-25, 03:17:05,VALID,999.91,VALID,0,VALID,95.8357,VALID,0,VALID,23.3695,VALID,175,VALID,1.18906,
2012-05-25, 03:18:05,VALID,999.943,VALID,0,VALID,95.8585,VALID,0,VALID,23.4085,VALID,167,VALID,0.96875,
2012-05-25, 03:19:05,VALID,999.947,VALID,0,VALID,95.8433,VALID,0,VALID,23.428,VALID,153,VALID,0.755859,
2012-05-25, 03:20:05,VALID,999.973,VALID,0,VALID,95.8509,VALID,0,VALID,23.4475,VALID,153,VALID,0.347656,
2012-05-25, 03:21:05,VALID,999.991,VALID,0,VALID,95.8509,VALID,0,VALID,23.4475,VALID,153,VALID,0.176172,
2012-05-25, 03:22:05,VALID,1000,VALID,0,VALID,95.8585,VALID,0,VALID,23.428,VALID,153,VALID,0.277734,
2012-05-25, 03:23:05,VALID,1000.03,VALID,0,VALID,95.8433,VALID,0,VALID,23.428,VALID,153,VALID,0.170312,
2012-05-25, 03:24:05,VALID,1000.05,VALID,0,VALID,95.8509,VALID,0,VALID,23.4067,VALID,153,VALID,0.515234,
2012-05-25, 03:25:05,VALID,1000.06,VALID,0,VALID,95.8433,VALID,0,VALID,23.4067,VALID,153,VALID,0.428516,
2012-05-25, 03:26:05,VALID,1000.03,VALID,0,VALID,95.828,VALID,0,VALID,23.3872,VALID,153,VALID,0.416797,
2012-05-25, 03:27:05,VALID,1000.06,VALID,0,VALID,95.828,VALID,0,VALID,23.4263,VALID,153,VALID,0.221875,
2012-05-25, 03:28:05,VALID,1000,VALID,0,VALID,95.8128,VALID,0,VALID,23.4475,VALID,153,VALID,0.382422,
2012-05-25, 03:29:05,VALID,1000.06,VALID,0,VALID,95.7975,VALID,0,VALID,23.4263,VALID,153,VALID,0.445313,
2012-05-25, 03:30:05,VALID,1000.03,VALID,0,VALID,95.7822,VALID,0,VALID,23.4671,VALID,144,VALID,0.585938,
2012-05-25, 03:31:05,VALID,1000.02,VALID,0,VALID,95.7746,VALID,0,VALID,23.4458,VALID,139,VALID,0.58125,
2012-05-25, 03:32:05,VALID,1000.05,VALID,0,VALID,95.7822,VALID,0,VALID,23.4458,VALID,137,VALID,0.564844,
2012-05-25, 03:33:05,VALID,1000.03,VALID,0,VALID,95.7517,VALID,0,VALID,23.428,VALID,137,VALID,0.438672,
2012-05-25, 03:34:05,VALID,1000.01,VALID,0,VALID,95.7212,VALID,0,VALID,23.428,VALID,137,VALID,0.413672,
2012-05-25, 03:35:05,VALID,1000.01,VALID,0,VALID,95.6907,VALID,0,VALID,23.428,VALID,137,VALID,0.251953,
2012-05-25, 03:36:05,VALID,1000.02,VALID,0,VALID,95.6602,VALID,0,VALID,23.4493,VALID,137,VALID,0.189844,
2012-05-25, 03:37:05,VALID,999.99,VALID,0,VALID,95.6525,VALID,0,VALID,23.4688,VALID,137,VALID,0,
2012-05-25, 03:38:05,VALID,999.989,VALID,0,VALID,95.6297,VALID,0,VALID,23.4493,VALID,137,VALID,0,
2012-05-25, 03:39:05,VALID,999.946,VALID,0,VALID,95.5991,VALID,0,VALID,23.428,VALID,137,VALID,0.0199219,
2012-05-25, 03:40:05,VALID,999.977,VALID,0,VALID,95.5839,VALID,0,VALID,23.428,VALID,86,VALID,0.788672,
2012-05-25, 03:41:05,VALID,999.959,VALID,0,VALID,95.5686,VALID,0,VALID,23.4688,VALID,85,VALID,0.667969,
2012-05-25, 03:42:05,VALID,999.931,VALID,0,VALID,95.5457,VALID,0,VALID,23.4866,VALID,85,VALID,0.726953,
2012-05-25, 03:43:05,VALID,999.93,VALID,0,VALID,95.5305,VALID,0,VALID,23.5079,VALID,85,VALID,0.798828,
2012-05-25, 03:44:05,VALID,999.906,VALID,0,VALID,95.5076,VALID,0,VALID,23.4688,VALID,85,VALID,0.794141,
2012-05-25, 03:45:05,VALID,999.897,VALID,0,VALID,95.4618,VALID,0,VALID,23.4493,VALID,85,VALID,0.783984,